Location: Limoges
(45.8354°N, 1.2645°E)
Time: 20:27:46
(UTC+02:00)

Courier 1B Rocket - Pass Details

Date: 24 February 2024
Orbit: 920 x 1201 km, 28.2° (Epoch: 20 April)

Event Time Altitude Azimuth Distance (km) Brightness Sun altitude
Rises 06:38:17 0° 240° (WSW) 3,546 - -12.1°
Exits shadow 06:40:16 - 230° (SW) 3,012 7.1 -11.8°
Reaches altitude 10° 06:42:07 10° 217° (SW) 2,613 6.9 -11.4°
Maximum altitude 06:45:23 15° 185° (S) 2,313 7.0 -10.9°
Drops below altitude 10° 06:48:41 10° 153° (SSE) 2,662 7.7 -10.3°
Sets 06:52:40 0° 131° (SE) 3,655 8.9 -9.6°
